GFSGBSN_con_3kmhel_000.txt.gz
Helicity
37 31 33 27 24 10 7 3 3 13 23 28 35 39 45 53 67 76 86 114 93 97 121 95 122 108 76 30 33 76 114 83 84 60 44 33 16 34 27 21 26 13 -6 13 15 9 23
41 44 38 31 22 21 21 15 18 23 32 40 35 48 64 69 80 88 110 102 96 112 73 92 90 77 48 9 26 49 68 71 49 25 23 23 12 23 31 36 25 18 6 3 1 -5 1
45 51 39 37 31 28 31 29 36 42 45 53 64 73 84 95 100 116 118 109 97 60 72 75 50 39 -8 2 2 -4 11 11 23 34 20 36 24 47 42 17 36 -0 -19 -14 1 3 8
48 50 50 47 38 48 48 55 61 68 74 73 86 105 107 107 112 114 118 90 52 70 82 62 33 38 8 -18 3 -4 12 -10 2 20 27 34 31 25 37 22 11 1 5 10 27 29 25
50 67 54 60 69 65 61 74 87 90 72 83 103 111 106 99 107 110 82 57 72 83 84 64 52 42 24 -9 24 26 38 23 4 17 30 17 29 22 8 8 -10 4 6 9 13 33 36
59 70 67 70 73 69 71 80 93 87 96 97 97 108 108 105 99 69 66 75 79 83 69 74 56 28 32 29 33 46 40 30 12 26 17 26 15 4 18 33 29 22 2 -6 19 35 44
63 67 81 83 77 72 82 83 93 96 101 96 91 98 85 65 59 48 41 81 85 66 57 69 40 49 33 38 58 30 42 32 10 26 14 46 12 39 39 40 24 8 7 25 39 41 45
64 70 91 88 82 92 89 90 100 99 106 99 96 79 74 68 55 41 79 71 66 66 62 88 64 46 56 43 36 82 93 24 28 23 13 10 36 28 32 30 16 8 7 26 32 32 38
59 73 86 91 97 100 90 95 94 95 110 104 103 85 81 41 26 57 45 53 64 90 60 71 71 66 71 93 81 104 94 52 60 51 32 44 47 23 22 42 31 19 26 36 28 25 25
56 68 70 91 96 100 95 104 90 88 98 98 95 71 57 31 54 78 61 61 50 52 46 58 49 40 36 8 51 77 50 17 39 60 61 57 37 32 28 42 44 18 37 21 12 21 48
58 69 62 72 92 107 103 127 98 86 85 92 90 68 32 57 55 69 55 59 37 43 11 35 56 20 25 33 11 66 23 41 58 45 8 46 47 45 49 41 43 60 38 29 32 31 49
57 67 63 77 91 106 118 143 117 92 91 99 96 67 40 71 72 73 58 46 44 37 12 36 13 30 56 101 70 36 45 50 25 67 86 62 37 48 44 18 25 39 25 33 45 61 73
51 62 53 70 87 104 125 155 144 104 92 98 82 63 70 83 94 65 41 -0 45 45 65 83 78 64 86 87 89 95 100 90 49 31 49 32 44 21 30 17 7 44 23 43 57 68 119
55 57 51 63 83 109 133 164 161 124 99 98 84 81 94 83 70 49 46 4 35 101 127 91 85 93 83 72 86 58 44 78 88 34 22 21 39 21 11 17 18 42 55 69 71 75 74
64 57 54 60 79 113 144 178 169 137 107 94 107 88 80 91 69 43 3 94 93 82 90 72 67 75 71 56 32 33 70 39 39 37 8 4 28 26 29 27 4 30 56 41 55 51 32
73 57 65 70 80 114 142 176 163 136 98 83 67 60 58 90 50 18 45 93 89 50 47 27 61 31 11 39 11 13 6 16 5 20 -8 16 32 31 40 26 57 50 42 29 49 62 35
83 66 70 77 84 119 131 162 174 138 84 59 66 48 44 56 37 8 66 69 72 47 32 43 31 34 40 -0 18 4 1 9 1 8 7 5 7 39 28 32 46 57 63 80 76 63 42
75 71 72 81 86 116 120 148 198 160 100 46 68 86 61 62 41 39 62 65 66 49 34 25 39 36 24 25 10 3 16 5 2 -4 5 6 27 43 66 87 80 97 117 109 86 75 89
58 70 72 82 96 110 118 140 190 173 129 64 82 75 68 56 53 74 68 89 90 57 54 41 30 22 26 22 11 20 17 22 3 -11 9 30 52 71 98 115 122 131 131 139 118 111 68
50 59 66 83 93 110 118 124 165 166 119 85 89 106 82 54 52 56 75 84 90 81 55 61 53 48 51 36 24 22 26 27 17 19 29 35 83 112 134 141 167 156 105 93 85 140 95
52 58 61 78 100 104 128 130 149 158 114 88 120 93 100 65 54 70 96 67 67 67 62 79 59 25 21 15 21 21 21 28 37 45 55 65 106 134 116 75 92 107 57 56 79 60 81
62 70 72 76 103 100 133 151 158 149 98 85 95 71 78 102 98 87 95 56 53 73 77 55 39 54 30 23 23 30 26 26 46 72 88 92 137 142 140 95 95 69 57 46 33 42 79
63 67 83 81 94 97 130 165 161 172 102 76 69 70 79 120 102 80 73 76 65 78 104 78 55 55 57 56 47 46 50 65 79 78 97 109 150 174 172 92 60 74 40 103 86 101 71
66 62 71 87 97 109 120 154 162 154 115 72 76 75 97 115 108 88 73 88 72 90 64 74 66 61 53 44 45 49 72 72 78 105 98 158 179 193 183 113 121 147 84 64 29 26 69
95 75 75 94 103 119 131 145 161 151 115 74 86 91 78 109 111 101 80 94 108 103 106 78 94 74 32 34 68 86 84 87 94 113 130 101 155 194 188 179 85 18 114 95 105 43 146
110 104 95 97 105 114 135 148 159 163 129 84 90 104 103 80 78 96 98 62 97 108 108 105 93 79 54 73 101 120 113 91 87 98 140 143 130 159 200 195 180 134 116 38 102 107 182
114 118 111 105 108 110 124 143 153 166 156 97 93 91 86 93 82 96 104 93 106 117 98 100 84 88 77 111 121 103 95 81 90 110 135 167 165 152 114 165 124 111 134 117 125 198 169
99 110 118 107 101 103 114 132 145 148 151 114 100 103 91 92 69 76 77 95 105 95 99 86 107 107 134 144 118 91 93 79 97 126 143 150 187 140 134 152 112 140 135 150 177 150 150
94 96 107 113 105 88 94 121 138 145 149 118 101 103 112 97 79 87 94 106 108 86 119 103 130 98 116 143 105 112 118 131 122 135 169 163 170 167 210 177 119 91 114 135 167 172 144

GFSGBSN_con_3kmhel_003.txt.gz
Helicity
84 82 71 52 33 19 18 19 16 18 29 23 31 41 46 48 49 51 58 57 58 64 77 81 128 109 90 69 30 42 123 142 107 66 52 17 13 1 3 6 -5 38 2 8 -13 -1 22
85 80 71 45 35 26 27 21 19 18 40 40 51 57 60 63 60 66 70 62 57 65 61 91 113 82 56 37 32 50 79 107 48 29 16 33 31 33 18 29 9 11 -10 -13 -10 -13 -5
87 77 65 51 40 34 30 15 -29 43 48 59 62 55 66 77 81 80 56 46 55 46 75 88 66 52 87 -23 28 37 42 66 53 59 7 30 32 30 -2 5 14 -4 -12 -32 -13 -9 -3
86 69 70 53 50 31 23 16 32 46 55 71 71 79 86 96 92 61 51 48 45 87 103 79 44 27 2 -11 19 14 42 18 23 35 25 30 35 34 50 24 2 17 25 12 45 15 13
80 70 75 59 56 41 41 25 29 30 61 83 102 107 105 96 73 63 51 56 91 111 108 75 41 57 18 -22 33 27 23 55 23 29 29 36 41 8 4 24 8 14 38 11 48 24 14
78 79 77 80 59 63 45 42 48 64 77 92 106 99 91 83 78 66 65 74 90 100 82 68 81 96 26 25 21 40 26 53 38 16 25 37 25 25 18 19 24 45 6 26 19 66 -6
80 80 84 81 72 76 67 52 57 58 71 96 106 104 86 80 72 59 49 76 81 82 109 64 12 7 10 23 37 21 28 38 37 32 29 19 45 71 86 57 86 80 33 30 67 63 38
76 81 95 81 83 79 79 72 58 60 60 84 97 98 96 77 52 42 81 129 39 64 25 14 12 16 38 40 0 13 74 34 28 22 12 16 50 38 30 34 34 23 19 34 39 39 44
68 76 97 86 81 85 90 77 61 51 59 77 96 109 101 58 21 47 75 48 84 74 37 30 41 41 40 35 33 30 61 22 17 8 23 78 58 27 32 41 58 32 61 64 61 26 4
66 75 87 83 84 90 104 85 71 56 53 64 93 111 92 40 59 38 27 52 54 53 45 27 29 12 34 37 24 57 56 53 38 60 72 56 49 43 38 45 68 34 59 32 17 11 -1
69 77 81 80 84 93 106 95 77 66 52 59 90 114 94 94 47 69 15 39 38 77 18 24 29 32 20 45 20 35 48 -2 24 27 5 49 48 45 54 60 52 89 35 21 22 23 44
67 72 74 75 74 91 98 104 84 67 53 61 85 101 46 87 88 48 52 56 48 63 -7 14 22 29 57 71 56 39 34 36 45 52 92 75 40 69 69 34 24 17 9 12 16 41 62
63 72 75 76 64 87 94 108 97 74 58 58 60 59 70 93 58 66 64 37 39 19 14 30 49 49 79 66 76 54 44 60 34 18 28 33 47 35 35 8 7 20 7 33 41 54 60
53 69 81 82 67 88 108 115 110 88 70 59 84 85 74 72 84 67 80 28 29 47 47 62 65 60 67 54 57 32 30 52 73 49 14 6 40 8 3 19 7 19 26 57 58 81 77
49 67 82 84 80 99 121 125 119 101 89 71 97 61 58 82 93 87 39 11 44 16 66 82 61 62 57 40 32 31 67 42 38 41 4 -14 21 25 16 17 1 27 40 29 40 55 49
46 58 81 84 88 101 126 144 121 106 97 75 57 66 66 101 84 114 37 86 83 99 45 37 61 24 9 36 2 -2 -2 21 6 36 14 4 16 16 21 9 20 26 37 22 51 69 63
48 54 79 81 82 100 122 162 124 102 91 100 62 101 70 81 93 92 35 71 58 59 49 36 26 23 41 14 15 -16 -11 14 19 14 13 7 3 34 25 22 21 54 57 55 59 86 82
51 46 73 80 78 89 127 174 157 114 94 79 80 145 78 71 94 80 69 40 45 53 29 34 59 43 13 17 10 13 0 29 16 12 -15 -7 8 23 61 81 47 57 102 99 82 100 80
52 43 65 79 77 85 122 182 194 121 68 78 108 56 74 78 98 79 41 61 53 38 50 25 24 26 4 3 7 17 12 22 12 0 6 6 30 28 102 124 126 74 130 112 124 102 58
48 43 55 78 87 84 111 173 224 149 87 91 83 138 84 61 93 20 30 41 69 89 59 47 29 14 14 6 14 2 10 6 9 27 27 25 47 62 73 96 145 143 108 90 88 118 66
51 52 53 73 88 95 108 146 214 194 114 96 121 127 107 59 54 29 27 24 46 65 54 29 35 18 18 7 6 2 17 21 17 29 30 31 58 77 59 62 111 117 76 66 74 81 96
66 52 59 70 89 101 108 136 175 199 123 100 105 87 101 72 66 43 62 27 33 74 45 44 32 44 29 10 7 25 21 20 41 40 49 51 90 92 83 90 111 87 54 36 59 71 48
74 67 69 76 86 104 123 134 153 187 121 93 84 96 91 91 62 59 48 49 51 63 112 58 59 59 104 93 100 97 89 79 79 67 73 71 89 98 95 84 67 142 111 119 82 58 66
87 72 69 77 85 105 126 138 148 172 152 85 80 85 106 107 67 51 53 49 56 73 78 106 75 91 81 65 55 82 97 92 76 86 76 99 99 128 116 96 126 224 106 16 69 28 35
102 95 81 79 90 104 121 141 147 159 164 78 72 86 82 127 102 97 71 91 110 81 64 108 133 100 57 84 94 104 97 100 91 101 98 89 115 128 136 135 100 44 174 167 80 31 52
110 113 107 89 91 100 119 134 141 155 156 92 91 99 84 87 105 74 94 68 103 114 108 126 128 100 85 116 118 121 118 109 119 99 107 130 129 99 169 184 207 214 138 91 55 77 249
119 118 117 108 99 105 115 125 150 157 165 117 92 103 99 103 103 96 104 79 108 65 95 117 115 124 96 130 138 127 124 122 124 114 94 132 131 126 145 198 161 118 163 67 147 155 168
111 111 122 130 121 115 118 122 139 161 165 132 94 98 114 109 93 123 117 98 112 86 102 128 140 142 146 147 131 127 147 119 117 99 102 87 106 125 178 203 160 135 170 209 126 108 180
117 107 110 124 129 125 126 130 133 151 170 136 96 98 125 106 95 109 106 116 150 146 117 70 143 97 106 145 150 150 158 152 151 152 89 83 100 131 210 190 108 111 119 58 124 150 136

GFSGBSN_con_3kmhel_006.txt.gz
Helicity
74 87 89 82 70 44 38 39 34 20 23 36 39 36 45 47 48 51 53 64 58 51 57 71 60 37 13 -36 21 11 146 95 52 51 86 50 45 48 -16 22 -0 49 29 72 35 14 45
74 88 91 81 54 46 43 46 38 31 38 52 48 44 41 51 55 58 64 56 43 49 61 76 60 65 -3 130 -1 37 101 117 44 31 15 34 31 41 16 -3 6 21 11 -3 -16 -2 -4
72 93 86 70 52 46 50 45 30 22 51 53 46 63 58 62 64 64 48 29 40 59 74 70 40 36 49 48 34 38 61 55 61 73 56 46 73 43 42 67 37 11 -5 -17 -23 -19 -12
62 87 82 64 58 51 50 37 31 33 71 76 73 59 61 66 58 35 34 59 73 77 71 49 40 29 55 -14 55 47 37 24 20 29 18 22 72 74 44 16 22 15 31 -24 -18 -36 3
67 82 71 70 62 55 53 40 39 59 91 88 83 96 78 77 58 76 94 99 107 98 70 45 17 43 46 -8 47 19 42 74 -10 45 37 53 78 17 24 41 6 -9 17 1 -2 47 51
56 71 68 74 68 72 48 46 30 59 67 74 87 94 112 97 97 103 95 81 89 83 60 36 56 112 23 14 9 28 17 65 73 49 68 93 42 20 33 11 34 95 6 34 4 92 5
68 61 63 80 73 82 51 31 44 71 86 83 84 105 115 111 108 82 43 35 58 67 116 87 -5 12 -7 10 43 29 18 36 72 67 69 31 50 59 122 75 87 111 102 54 63 93 35
66 60 68 76 82 89 55 62 52 76 88 82 85 91 88 86 85 67 52 143 25 55 36 27 5 7 39 60 17 17 69 67 32 76 14 23 33 53 63 44 56 82 82 34 72 65 26
67 63 73 80 87 84 67 74 68 83 82 79 78 83 73 61 42 59 146 64 95 58 46 44 63 22 50 60 40 14 103 46 56 35 1 66 64 32 64 41 72 35 78 92 84 46 -10
74 65 77 85 89 79 89 72 68 75 77 70 66 83 51 20 59 68 95 83 22 31 77 38 44 11 13 13 11 20 42 50 54 38 69 46 48 43 30 44 66 72 76 39 20 18 -2
75 71 78 86 96 93 94 73 65 65 63 60 61 73 54 56 132 77 28 23 45 37 53 24 10 15 3 37 17 13 27 69 16 24 27 26 43 59 58 63 50 97 35 29 21 15 26
68 72 76 86 96 100 94 74 59 63 59 54 56 60 46 74 101 33 41 40 76 82 16 14 -25 13 23 34 37 22 19 49 30 34 104 69 40 71 59 25 32 28 14 18 -0 8 57
68 69 72 80 92 103 93 79 69 68 58 42 37 35 82 130 61 39 77 70 104 58 5 -0 29 -1 37 44 44 20 25 46 54 12 10 28 39 27 27 10 10 36 54 44 41 47 42
70 64 69 78 92 102 94 91 85 77 67 40 47 63 88 62 74 66 88 75 72 37 15 32 46 54 55 38 37 26 20 32 72 99 11 27 33 6 5 19 -10 5 11 40 60 92 83
66 61 69 73 94 100 89 96 102 87 77 49 61 61 55 58 81 83 106 54 33 25 75 60 55 54 40 24 20 46 94 40 55 83 41 2 16 21 13 -3 2 2 43 14 48 57 69
60 59 63 63 89 93 88 102 109 95 86 67 65 61 43 48 73 109 86 53 34 107 33 30 35 13 17 19 1 -5 6 45 24 63 64 -9 15 -10 8 23 11 18 17 33 71 79 78
53 55 56 56 81 85 94 110 121 104 88 46 100 105 53 49 83 100 47 -4 43 2 102 -20 10 8 40 5 -2 3 26 27 52 29 27 56 -1 7 20 11 48 59 97 63 46 98 106
50 52 54 52 72 86 104 114 133 130 113 75 74 155 31 73 101 60 16 76 68 10 41 85 96 45 42 31 48 39 30 52 37 58 -8 8 1 1 45 45 42 74 105 89 109 122 156
48 47 57 49 61 91 121 133 138 124 78 71 96 47 52 101 121 81 118 98 35 19 27 37 47 64 63 38 41 38 27 40 42 34 5 11 7 -9 96 73 92 71 155 143 195 126 104
55 45 52 51 60 86 126 139 144 104 38 37 68 95 108 70 173 46 56 62 82 93 63 64 45 25 31 18 35 19 17 14 30 34 25 24 25 36 51 63 96 105 110 102 131 224 122
59 54 55 51 60 77 115 156 139 95 67 71 83 66 78 97 139 118 33 39 57 54 28 26 37 29 30 48 24 9 25 1 7 21 38 40 51 48 38 51 78 89 83 85 93 88 135
65 61 60 58 66 72 97 144 166 136 92 86 162 102 89 79 42 72 103 70 45 44 28 34 50 40 46 38 18 4 12 8 30 35 48 55 62 56 46 79 97 63 66 67 55 67 70
72 66 67 67 70 80 83 115 161 166 102 89 66 78 92 119 85 92 82 48 41 138 78 45 66 110 195 187 181 177 157 134 95 65 77 76 71 79 77 81 56 103 108 135 166 112 120
86 78 76 75 77 92 95 99 142 159 130 125 99 82 90 103 85 55 40 62 107 56 70 113 118 177 175 120 145 157 164 136 104 122 101 97 103 101 105 96 127 158 81 69 100 85 57
96 93 95 86 85 94 105 109 133 168 154 79 78 120 80 90 63 80 62 79 169 121 137 222 239 138 61 79 90 97 108 113 116 141 111 93 92 125 127 135 93 31 165 166 179 58 47
105 101 106 103 99 100 106 119 128 154 166 78 77 105 76 81 121 59 73 143 128 183 216 145 182 135 117 127 120 114 113 112 103 132 138 124 113 117 162 158 134 143 241 196 62 112 225
106 107 112 116 114 114 113 119 124 139 154 106 74 98 88 107 103 119 128 111 124 111 114 121 121 141 131 135 145 123 131 147 134 133 120 170 149 141 140 144 98 76 134 105 198 246 148
105 104 110 118 126 126 125 125 128 142 139 125 73 85 104 104 93 189 159 94 128 84 151 103 163 142 152 147 126 124 143 128 171 149 146 155 148 143 142 147 102 172 226 216 208 153 171
132 116 106 111 118 126 127 130 135 150 176 139 85 83 105 105 93 161 166 192 183 224 151 121 116 98 107 127 131 132 151 170 199 190 106 167 148 172 173 148 87 161 188 125 156 127 250

GFSGBSN_con_3kmhel_009.txt.gz
Helicity
35 33 42 62 68 42 39 26 33 45 44 30 -3 24 20 29 25 15 22 50 39 46 56 46 12 19 -18 -3 43 45 123 99 40 53 108 77 45 6 100 -20 8 69 71 93 59 127 172
41 23 32 64 58 38 33 27 41 49 32 27 22 21 22 20 29 51 59 47 37 48 60 46 15 36 -16 108 51 43 97 54 86 39 74 67 8 31 25 31 43 64 89 26 0 52 26
40 29 31 57 40 39 29 30 42 38 28 23 41 37 40 34 47 57 55 49 55 64 72 41 49 15 25 133 37 53 87 80 87 62 80 47 37 81 52 137 73 42 25 38 10 12 -19
34 32 37 46 29 37 33 32 40 35 27 57 48 20 35 51 63 60 73 80 77 81 73 47 46 -17 50 39 36 71 87 101 77 77 61 55 66 106 46 18 46 13 8 57 -22 71 -10
17 41 42 41 28 38 35 33 40 39 49 63 73 78 73 66 72 100 90 84 95 88 70 41 14 8 122 2 24 43 60 147 52 49 31 75 59 61 32 18 2 -19 22 3 -16 58 35
26 37 41 36 33 41 37 45 45 41 52 88 90 106 97 58 88 85 77 88 64 82 59 48 51 47 50 34 3 22 42 57 96 78 64 57 28 -6 23 -1 38 26 16 49 112 37 17
28 31 41 42 47 39 49 57 59 42 55 88 102 135 101 81 82 64 52 62 71 69 21 86 39 90 8 0 11 35 33 74 84 78 110 50 16 61 41 60 67 71 55 62 81 74 38
26 41 48 52 46 42 67 69 55 55 73 87 133 121 93 71 42 26 13 108 66 59 86 162 -4 15 50 55 9 41 56 75 65 137 89 37 55 40 28 42 62 58 59 91 43 54 50
31 50 50 63 48 52 77 80 62 66 86 114 147 120 79 33 15 17 100 148 -10 19 51 44 55 28 61 63 73 43 76 92 110 92 53 49 28 37 90 57 138 138 72 99 69 41 -3
30 55 48 71 64 64 83 81 72 80 99 115 130 96 40 19 63 54 140 78 -29 44 64 50 56 30 53 9 32 40 64 81 66 74 52 17 29 51 57 47 92 65 62 50 42 44 42
41 58 55 71 80 84 95 96 82 74 90 102 105 56 21 35 90 48 76 30 46 6 46 38 32 8 22 37 10 59 42 124 97 84 60 46 70 103 72 30 49 29 21 14 28 25 51
44 57 57 73 83 97 106 110 90 73 92 97 92 73 23 58 76 56 37 58 6 40 49 30 11 1 12 11 23 8 29 52 57 74 83 29 21 40 43 40 49 46 74 64 48 59 61
52 56 66 73 85 101 110 114 86 79 88 93 83 62 57 85 50 52 72 39 76 44 -3 10 -12 -1 10 31 -1 6 40 87 89 28 -4 32 21 -4 31 18 24 42 70 64 74 80 68
61 54 74 74 86 105 104 117 90 84 82 79 55 53 91 56 63 55 67 95 115 1 2 -1 6 57 26 43 56 33 19 62 123 72 -16 34 32 33 39 32 0 50 11 37 44 67 45
61 59 75 76 85 96 101 120 103 88 83 75 67 74 66 66 66 67 79 91 94 91 80 40 9 57 40 24 52 49 26 20 77 129 60 0 -7 7 19 57 19 -1 25 18 55 24 58
69 63 72 73 81 77 107 118 110 97 84 68 74 55 51 45 51 83 63 96 38 96 57 46 5 4 4 -10 -7 13 21 65 52 86 66 64 -1 42 28 18 17 29 26 48 39 52 35
74 66 66 71 78 68 122 117 117 102 68 51 91 74 73 54 69 80 41 69 44 81 135 -26 -6 22 26 -15 3 22 33 53 79 51 46 74 2 -5 -11 -3 16 30 69 55 70 112 106
81 66 65 64 75 71 122 125 120 103 80 79 88 126 85 79 90 67 48 48 55 10 76 82 106 97 73 70 96 50 46 47 72 90 12 35 -3 -1 -2 -5 16 51 62 98 114 115 147
78 69 61 65 72 78 117 121 124 109 94 79 80 108 59 99 83 33 117 93 57 13 22 96 128 135 135 82 62 36 53 65 67 46 -8 19 -1 8 0 -1 -6 35 122 148 191 143 157
73 74 63 66 75 83 113 125 120 83 45 43 147 138 139 97 85 84 62 88 117 106 114 116 64 86 108 89 74 50 36 23 38 52 57 52 31 44 47 55 72 68 73 128 246 262 192
69 76 65 59 73 85 110 113 126 78 41 16 85 76 64 112 110 148 98 56 95 101 77 66 51 46 67 63 38 42 42 -3 26 45 70 65 52 49 34 35 54 60 53 62 103 141 278
73 75 66 66 71 83 103 108 121 96 56 61 162 96 97 98 112 140 89 79 78 24 60 6 45 44 92 135 92 9 8 -7 23 31 51 63 50 62 66 101 83 59 26 20 60 76 103
80 78 72 68 66 77 97 122 121 142 82 101 61 75 110 151 99 125 130 114 86 157 75 72 88 265 287 199 239 270 220 155 107 65 68 75 77 78 60 73 77 112 100 100 134 148 189
83 77 72 72 77 78 86 130 153 144 123 82 106 99 107 145 109 84 74 51 121 158 116 202 211 240 177 185 192 232 282 229 144 169 86 98 109 99 83 108 125 103 96 123 182 219 186
86 77 80 78 79 90 91 113 158 177 173 89 86 87 68 107 87 101 68 116 246 350 310 354 250 139 127 168 141 132 146 141 142 175 143 125 132 126 125 121 95 142 174 138 163 141 152
92 83 82 79 83 93 104 119 146 169 186 79 91 86 70 82 94 106 94 151 258 300 302 295 265 200 146 147 152 117 93 93 97 114 200 184 150 146 158 150 98 150 211 164 152 172 243
97 93 90 86 89 96 107 126 148 165 175 91 90 93 80 119 138 137 161 203 202 248 225 184 165 183 153 158 149 130 122 130 103 100 123 186 174 161 164 154 93 73 166 144 232 160 242
101 99 100 99 95 98 106 122 145 158 164 104 90 92 77 83 109 163 220 200 173 202 170 103 205 165 171 165 135 116 121 108 147 125 114 138 157 134 171 171 97 81 218 234 183 253 248
114 110 108 108 106 107 117 126 143 168 181 127 113 104 89 74 62 97 146 197 223 177 144 130 89 104 130 158 147 141 154 149 163 161 167 197 151 137 195 147 117 116 169 205 280 244 294

GFSGBSN_con_3kmhel_015.txt.gz
Helicity
78 76 67 75 65 37 27 25 35 38 42 3 -1 8 16 4 3 9 18 12 14 3 23 34 39 55 27 29 97 30 24 41 77 71 97 77 101 26 -1 4 8 25 17 26 25 65 72
92 79 75 72 51 30 24 23 26 36 37 -7 5 9 4 -0 -8 12 13 8 1 3 46 28 48 41 17 95 40 35 -42 79 101 98 56 68 64 47 42 40 47 16 10 60 94 90 67
94 79 68 58 40 26 28 27 24 34 25 -5 -4 -1 -4 -5 -8 10 5 3 -8 39 45 33 11 -18 47 139 47 90 40 91 130 99 86 149 87 86 13 21 11 51 80 113 106 113 58
89 81 61 49 36 33 32 35 30 27 8 1 -12 -9 -16 -1 7 12 10 3 34 44 48 45 -13 -20 76 68 62 104 53 46 63 61 72 37 20 42 8 66 112 43 34 -23 -22 23 46
84 81 66 45 29 37 32 33 36 14 9 -5 10 -28 -26 4 5 7 13 24 31 41 37 8 -10 21 76 83 84 80 32 58 49 9 -0 34 21 70 59 75 64 82 -31 -6 3 23 30
79 75 63 38 27 30 28 34 32 5 10 7 -29 -4 -31 19 26 22 11 12 9 25 63 38 46 47 45 52 76 63 39 54 43 50 68 60 50 87 107 56 24 24 -9 20 2 25 35
76 64 54 34 26 29 27 22 15 14 24 35 52 51 -1 47 7 -7 8 30 46 78 66 55 31 53 76 64 54 68 45 50 53 59 97 97 66 53 67 46 35 44 55 22 16 56 86
85 61 46 27 25 21 13 2 15 35 35 41 12 71 25 7 -9 -38 61 105 100 85 87 46 77 81 93 87 74 98 55 54 71 65 101 104 70 65 36 42 36 54 41 81 120 158 158
87 66 52 29 28 11 3 -8 22 43 42 43 23 66 -42 -20 -43 51 86 147 88 57 62 65 37 41 57 24 48 88 55 62 57 60 63 50 87 45 38 64 65 70 76 77 95 126 154
93 77 54 29 32 5 -5 23 40 54 52 10 34 48 -31 -20 93 89 127 93 66 35 40 69 41 54 41 47 72 79 68 58 64 71 98 75 106 64 70 42 42 106 109 130 132 142 106
94 78 56 43 32 14 4 43 66 57 70 33 63 35 -28 96 107 108 97 84 32 45 51 62 55 57 43 43 62 109 80 64 69 100 80 49 62 62 54 48 65 56 92 100 106 137 185
97 71 56 55 36 25 39 55 79 68 78 70 78 73 36 107 100 108 100 80 34 63 62 51 46 36 41 59 85 105 109 129 85 152 163 80 51 67 56 69 70 82 88 112 111 123 170
91 81 64 66 48 45 63 73 78 86 76 88 92 49 63 64 103 94 84 41 54 59 46 38 30 26 39 60 91 92 139 157 95 109 108 100 93 96 98 67 76 79 83 79 64 70 93
91 84 73 71 73 62 79 88 90 96 80 110 90 46 113 83 92 76 56 50 81 64 44 47 18 56 44 74 105 151 133 112 130 75 96 64 81 89 96 47 29 57 37 29 11 24 52
89 80 82 87 74 72 89 98 103 97 76 110 82 119 123 114 55 53 23 66 86 51 26 49 71 57 79 88 83 105 106 95 90 89 47 42 55 84 76 56 21 27 49 30 60 53 60
90 85 90 86 74 87 86 112 108 91 80 76 137 136 131 118 59 44 36 118 90 51 30 66 49 37 40 72 94 89 76 89 79 76 50 32 58 58 72 44 61 26 1 7 10 25 42
100 84 92 81 82 86 90 126 107 89 92 99 164 142 138 122 77 42 53 122 104 89 24 44 37 22 14 43 69 69 45 63 82 87 71 53 41 59 52 47 26 28 4 15 17 25 47
113 86 92 84 80 80 101 125 105 92 114 153 161 120 169 122 96 38 56 127 130 96 92 59 34 33 27 50 72 57 39 45 81 67 53 59 44 80 49 62 44 23 17 27 44 29 57
116 95 86 87 72 92 112 119 111 95 108 178 174 137 176 117 55 66 105 124 91 78 63 54 43 37 80 87 61 69 62 58 72 57 53 77 72 81 83 75 54 31 39 59 62 66 63
122 86 84 77 81 99 122 125 118 98 139 167 163 144 199 142 81 36 76 80 81 89 48 64 76 90 111 101 94 47 73 54 65 69 77 83 65 32 3 19 47 46 67 79 86 80 87
113 86 80 86 92 100 131 135 116 105 126 175 174 142 141 119 108 89 114 93 65 62 61 73 103 68 52 70 81 61 54 63 83 89 88 85 48 75 84 90 73 65 76 92 102 122 145
105 95 93 80 92 121 132 129 122 119 132 169 153 137 177 101 136 125 126 83 59 69 62 58 56 75 56 25 21 21 54 57 55 101 107 119 65 103 86 108 97 60 66 69 77 104 127
100 103 76 88 114 129 122 133 124 108 153 147 165 159 138 160 176 156 130 97 42 90 125 78 61 94 95 58 58 76 75 79 55 57 84 93 94 110 81 106 103 61 70 154 113 133 161
103 98 73 109 126 117 132 144 140 89 124 79 117 120 160 157 164 145 161 118 102 86 90 84 98 112 63 75 127 194 258 208 181 160 96 102 139 148 107 131 127 84 110 94 132 135 144
110 84 90 120 120 125 141 169 169 80 82 54 124 99 129 174 150 157 187 179 209 224 170 132 97 75 111 161 121 115 120 111 126 147 149 122 148 170 162 154 152 127 138 201 200 110 151
83 88 114 124 103 129 151 187 187 114 90 81 98 96 95 180 200 171 186 160 172 209 211 152 159 267 176 152 136 108 73 62 65 80 143 193 206 200 203 184 122 103 135 184 205 154 140
94 123 120 106 96 130 156 208 222 189 122 60 74 76 94 131 162 134 156 127 140 202 195 197 193 155 170 162 166 140 122 109 107 95 86 153 180 160 190 170 163 83 190 255 258 97 141
126 121 112 99 99 127 159 209 263 226 160 107 94 101 71 107 157 140 127 144 149 159 169 132 207 153 177 173 150 118 133 102 148 139 106 118 133 146 229 225 168 177 330 203 111 167 101
119 110 104 105 111 120 163 196 241 245 169 106 136 140 122 111 108 146 148 144 114 88 149 152 99 89 106 166 152 147 163 151 174 165 185 182 163 142 149 123 127 73 105 123 182 192 177

GFSGBSN_con_3kmhel_018.txt.gz
Helicity
79 77 77 77 69 69 55 42 28 12 19 20 29 38 37 45 33 14 2 7 7 14 37 39 32 15 9 37 84 7 -1 41 85 64 36 28 65 63 -12 -26 30 60 19 8 7 24 53
96 90 88 86 75 70 45 38 29 12 16 19 37 39 37 37 21 6 -7 11 6 27 31 26 20 -0 24 60 17 2 -12 39 54 72 50 28 41 34 49 29 21 19 29 30 26 131 131
95 97 94 81 76 67 43 39 31 19 21 22 36 36 27 25 9 3 -7 9 12 19 20 33 6 -21 55 75 10 66 66 77 91 135 88 131 48 46 19 9 30 41 56 67 96 102 111
99 98 92 83 79 66 44 41 36 12 14 23 30 27 11 16 2 -5 -0 11 15 20 42 35 13 5 64 52 42 100 47 61 79 107 119 78 67 62 22 21 88 57 53 53 64 76 83
108 103 90 83 79 58 44 39 41 12 13 17 17 12 -5 2 -7 -7 -3 15 20 30 30 11 4 21 94 83 83 41 34 57 38 26 50 16 -0 52 55 59 103 75 24 35 16 33 23
115 111 96 87 71 53 44 31 48 11 10 7 -0 -3 -12 -1 -4 -6 -2 18 23 33 36 14 33 39 57 77 81 48 42 32 33 48 48 55 40 49 81 81 34 18 -19 8 -0 38 91
119 110 95 88 65 48 35 30 43 12 5 -5 2 -4 -16 -11 -6 -0 13 29 52 47 -4 19 44 42 53 98 95 53 51 46 33 60 61 90 86 79 66 32 26 29 21 34 40 58 83
132 110 98 91 62 40 30 32 40 23 5 1 9 -6 -5 -7 -22 -12 13 67 47 27 86 64 48 66 69 48 89 77 44 44 46 66 75 123 103 79 65 67 59 59 54 69 89 151 125
136 117 99 90 59 42 30 34 31 12 -13 15 11 -10 -2 -10 -18 -40 16 83 71 110 78 52 32 54 42 12 59 90 59 45 56 67 63 69 73 62 55 74 85 90 86 53 71 152 151
128 123 101 88 61 40 32 39 20 2 -8 19 16 -5 4 2 -4 27 108 81 77 57 38 68 49 56 31 34 76 94 70 46 94 32 77 67 67 40 62 39 35 74 60 82 85 111 102
134 124 107 92 69 45 43 46 15 9 17 20 13 -11 8 -12 100 87 100 74 44 54 50 44 35 34 36 27 51 78 78 73 82 82 49 70 72 69 59 42 39 58 78 108 100 121 129
137 117 107 95 76 55 43 48 28 26 37 29 4 5 14 95 94 97 87 60 54 41 64 44 40 34 49 67 88 107 88 107 83 117 153 86 74 69 54 65 63 58 95 121 95 102 114
117 124 110 96 78 67 57 58 54 46 47 55 27 42 82 107 108 78 74 62 46 28 35 46 42 51 60 81 112 110 139 157 85 74 91 106 81 74 86 79 79 90 103 92 83 113 3
117 130 119 89 76 72 74 77 76 54 67 76 70 77 92 87 91 84 75 65 40 46 40 54 41 67 34 63 120 144 129 117 131 80 84 47 61 83 97 77 56 97 91 91 7 21 28
106 125 112 84 74 77 92 96 84 60 82 81 99 110 135 120 68 75 65 36 55 44 47 44 83 62 71 71 74 111 133 112 113 88 50 59 68 86 90 71 55 45 54 57 44 -18 12
104 117 104 86 77 81 102 108 89 69 80 79 140 136 148 149 74 85 56 57 59 47 50 72 50 48 48 62 88 105 106 106 92 98 67 37 53 75 77 57 82 40 38 38 58 12 24
121 126 105 88 83 91 109 105 90 84 73 74 166 161 167 161 107 92 31 75 83 73 47 47 28 39 58 85 85 91 77 66 91 94 90 55 52 61 63 71 58 61 21 39 28 35 40
112 130 99 97 90 101 111 105 92 89 112 163 186 145 193 169 120 86 38 78 92 92 67 75 52 32 37 87 81 63 28 43 75 81 69 80 41 65 55 54 40 33 22 38 49 34 59
110 106 97 107 96 103 119 96 99 93 88 193 192 171 203 146 66 94 84 103 104 108 70 71 64 23 60 85 61 51 45 57 56 60 40 44 56 87 89 68 68 37 59 73 82 74 59
106 83 94 112 93 119 111 106 101 92 75 172 184 153 211 163 101 58 87 95 102 105 81 67 68 86 90 107 107 38 65 61 55 58 84 78 70 47 -9 26 55 59 71 93 103 88 81
89 80 97 109 90 108 113 114 105 90 113 182 183 132 139 140 139 87 96 84 81 70 78 83 91 83 61 60 79 57 50 64 74 69 83 85 60 70 72 79 68 61 57 87 104 122 124
86 72 95 91 90 108 120 107 110 103 151 187 140 107 169 135 165 143 108 86 58 84 71 62 63 77 71 13 -1 -16 43 41 44 88 87 102 58 79 67 99 107 64 54 81 108 140 114
68 76 85 88 93 106 99 103 119 131 183 193 186 152 111 193 192 179 131 113 68 88 102 66 54 64 63 38 46 59 64 89 64 65 95 100 93 95 59 110 111 47 85 166 174 190 180
79 75 89 96 98 96 99 100 124 126 156 175 147 120 125 146 148 147 140 156 107 64 59 97 105 81 43 56 92 140 187 159 159 155 101 95 135 141 101 147 131 104 119 115 136 122 171
80 87 100 96 105 110 100 108 115 84 141 146 125 102 101 124 149 176 146 188 208 197 145 134 124 76 53 118 105 106 113 98 111 124 135 111 128 162 157 147 153 131 132 137 179 114 193
94 108 101 109 113 108 111 110 107 77 117 90 108 97 70 92 132 157 195 212 177 194 181 144 127 164 114 104 115 96 67 71 98 100 111 153 171 165 173 181 159 86 111 131 181 186 164
101 93 104 107 113 117 137 154 103 80 70 46 60 90 80 104 212 137 162 175 181 213 188 155 157 126 123 136 148 127 110 98 92 93 79 131 149 157 222 207 183 101 154 214 242 97 87
94 95 107 95 124 149 204 173 123 84 81 98 97 97 80 102 197 173 159 166 168 171 170 125 237 150 152 156 143 121 139 103 143 133 112 122 128 123 188 218 170 150 257 181 92 94 66
110 96 93 128 147 168 177 179 157 136 153 261 217 57 78 124 139 162 147 141 104 88 155 157 103 101 109 169 149 144 172 179 189 171 179 172 146 151 153 145 124 16 61 71 132 130 130

GFSGBSN_con_3kmhel_021.txt.gz
Helicity
93 81 84 85 76 73 57 70 60 58 39 21 17 7 23 32 41 50 24 18 12 20 32 33 30 16 -3 13 19 12 35 47 38 12 5 21 39 35 13 -25 -9 93 52 9 -14 -123 39
107 105 95 92 91 75 61 69 67 63 40 22 18 8 30 35 36 32 16 12 17 24 18 29 22 6 4 26 13 19 -16 33 33 45 20 -4 10 31 44 44 44 31 48 6 30 17 61
97 108 108 105 97 82 74 72 77 72 43 19 29 18 38 34 25 18 8 8 15 19 23 22 7 13 27 60 25 40 24 29 43 76 43 53 64 55 17 65 43 -6 34 25 43 87 91
111 103 109 111 102 81 85 73 71 64 40 27 21 16 31 19 13 6 1 7 22 18 22 10 25 18 53 55 39 109 71 55 44 70 61 35 96 61 20 30 52 47 61 47 76 77 108
127 111 113 115 104 79 83 67 63 56 36 36 21 18 15 9 4 -8 8 22 19 23 22 12 18 40 79 83 59 37 38 51 8 28 17 14 47 38 52 28 39 73 29 37 77 106 53
148 106 121 123 107 85 82 69 58 55 37 43 17 12 -1 -6 -5 -0 15 27 11 16 17 14 47 53 56 54 54 55 30 26 42 21 18 25 52 70 54 53 13 25 36 21 24 68 101
250 137 112 125 114 89 78 68 54 51 37 44 13 4 -8 -16 -5 14 27 32 36 25 8 15 36 42 55 97 40 68 42 38 92 50 54 69 33 20 32 33 25 42 45 48 61 51 73
228 184 133 120 115 96 75 65 55 46 38 37 19 3 -16 -6 7 12 -0 25 24 22 68 6 40 55 54 63 88 64 33 53 34 49 65 67 81 84 49 57 57 51 50 53 59 67 57
208 192 151 128 116 102 80 66 54 45 40 40 10 -4 -5 8 -8 -10 -25 -12 22 56 37 30 34 36 46 13 49 69 49 45 52 74 60 78 67 94 98 86 104 83 44 25 44 101 104
123 221 161 119 115 104 88 71 56 44 41 32 3 -4 14 15 -29 -8 -18 48 73 49 47 50 33 39 25 19 64 108 80 39 61 57 79 79 85 80 59 63 33 40 37 36 57 65 56
70 158 150 102 122 116 99 76 59 50 40 29 -4 -5 25 -18 21 1 28 50 29 92 44 36 42 30 40 30 50 115 129 81 59 62 43 40 61 39 48 39 31 -3 44 60 71 116 71
159 94 107 98 134 129 102 75 62 58 36 39 -7 -3 2 7 18 75 70 36 73 74 63 43 57 38 55 90 76 110 82 96 82 91 144 67 79 51 25 50 75 21 109 117 101 90 58
140 25 109 99 124 138 102 74 61 62 44 44 4 6 33 47 41 81 53 72 71 36 35 43 36 41 41 53 72 79 107 134 99 101 85 99 81 58 46 46 77 64 99 43 60 78 72
149 54 14 118 104 137 103 78 67 68 69 52 27 7 64 47 76 87 92 84 49 40 36 48 44 69 33 50 79 105 111 107 131 89 67 7 14 55 76 57 52 86 81 85 -5 -12 -16
103 25 -7 106 100 134 101 77 82 71 78 57 45 59 72 57 95 103 93 53 56 41 35 30 71 56 56 74 80 99 114 101 100 96 36 31 44 74 81 73 76 58 79 89 77 24 -1
64 132 -88 108 126 136 95 90 90 75 79 52 98 110 90 93 82 111 69 49 57 39 47 63 55 43 44 60 77 105 106 102 92 91 73 39 52 74 65 70 99 49 60 42 59 -1 7
32 42 -34 140 159 141 102 101 94 85 87 48 151 149 136 138 132 125 34 52 54 52 41 53 52 54 63 68 75 95 73 82 80 86 90 71 61 48 51 56 40 60 54 71 53 41 17
-8 -32 66 101 141 126 103 106 94 100 114 145 206 157 194 183 185 132 38 54 47 74 47 54 54 54 56 73 90 85 64 72 66 81 67 77 52 53 69 49 50 47 45 39 40 29 61
-38 -132 -87 121 111 118 107 105 97 98 109 229 240 203 226 178 136 141 82 83 70 94 81 59 59 35 40 55 65 70 59 71 61 55 57 54 66 61 58 55 65 44 54 67 86 77 58
-52 -167 -0 134 110 103 102 112 105 107 79 211 238 182 264 181 143 87 90 98 104 108 97 82 74 72 62 70 88 51 68 62 61 59 85 86 60 32 -5 31 50 53 59 85 94 79 94
-82 6 112 205 119 84 102 109 123 110 75 175 247 181 226 187 163 98 105 78 112 99 93 90 80 52 45 56 95 62 56 63 80 57 72 60 32 74 72 71 49 44 51 81 93 134 124
-93 148 212 113 103 87 107 112 144 129 130 179 205 148 227 160 166 120 123 98 112 102 83 75 56 77 77 32 35 11 48 36 39 80 76 86 48 81 53 75 81 42 35 79 94 127 101
-221 299 110 113 76 86 104 129 139 120 217 168 192 177 134 219 181 160 134 129 103 93 105 86 51 91 82 57 66 72 82 108 70 63 94 91 91 91 69 108 108 37 50 142 191 196 180
157 191 115 69 72 92 104 131 126 110 186 207 160 164 127 143 141 118 105 144 131 86 63 97 93 76 52 58 110 164 203 163 150 148 99 90 120 121 102 128 127 105 109 112 91 111 167
169 100 62 50 80 92 106 121 127 92 108 218 173 121 84 103 121 152 121 180 233 226 140 113 104 86 35 117 106 86 91 82 100 130 127 101 109 117 111 119 109 103 102 105 118 111 102
105 72 53 72 85 91 100 110 114 103 107 209 186 131 86 89 108 121 173 193 225 248 213 146 147 143 112 113 105 64 37 43 56 82 107 139 147 134 137 121 90 82 106 114 123 126 90
78 57 73 83 84 88 95 93 95 106 129 186 165 113 74 81 118 136 173 167 206 249 214 181 163 104 108 123 110 83 71 92 66 75 74 115 139 144 179 154 122 63 136 123 177 93 91
85 89 81 82 88 87 74 75 87 104 113 174 129 91 73 82 147 159 146 160 213 225 191 153 216 143 144 145 121 97 100 93 118 109 85 100 117 116 150 171 110 80 113 111 89 75 69
95 75 83 85 77 92 95 86 95 76 68 105 68 56 81 88 112 167 123 135 145 118 174 166 123 108 111 181 134 115 139 145 145 121 116 127 118 130 110 121 100 30 56 86 119 109 110

GFSGBSN_con_3kmhel_024.txt.gz
Helicity
94 83 87 93 92 81 61 56 56 57 68 54 59 46 41 30 21 26 57 42 32 6 1 7 27 24 1 9 6 11 25 80 56 11 -5 -29 -14 13 9 12 -3 15 13 12 -19 -38 -54
79 104 99 99 100 86 69 62 58 56 68 52 65 33 39 31 23 33 51 34 25 -8 3 8 25 26 4 24 -4 7 3 62 48 26 -38 -26 18 19 52 32 50 51 62 36 -18 -34 -6
148 116 111 116 108 92 83 76 72 54 67 51 59 43 34 40 33 42 42 27 19 0 10 10 4 11 -13 -25 -6 13 13 -7 27 43 21 20 23 17 47 70 23 43 9 11 14 52 13
150 117 120 129 127 110 89 82 78 55 57 50 54 37 32 48 38 41 20 19 22 3 10 8 -12 7 8 -18 28 81 50 13 10 13 14 19 43 72 70 36 44 38 12 19 46 28 33
124 150 119 120 143 124 101 85 77 60 50 42 53 40 33 50 33 33 6 22 9 -6 0 -13 -8 16 43 36 31 20 -5 22 11 -5 1 32 34 53 19 50 21 21 4 21 53 62 43
86 123 140 132 136 127 109 92 81 70 53 40 50 35 32 45 19 28 24 10 5 -9 -17 -10 29 32 21 17 45 27 -12 -10 25 10 -10 47 42 28 47 62 0 -5 22 2 34 70 12
94 124 165 127 125 119 104 95 86 77 52 46 48 35 22 33 19 55 30 16 0 -7 -29 9 40 65 64 97 18 15 13 -9 26 6 75 22 54 46 31 26 46 28 15 13 28 56 49
88 87 156 142 133 109 105 98 94 84 52 50 49 31 24 24 34 45 -20 -24 -40 -18 -10 15 50 46 56 43 47 21 20 21 41 52 42 2 79 54 26 14 14 17 26 42 38 19 43
78 91 110 136 119 106 100 104 102 82 59 55 51 34 29 46 45 -8 -50 -30 -14 37 36 1 9 26 38 17 54 46 38 19 10 75 52 57 33 50 9 13 18 43 29 22 24 56 47
62 74 99 129 110 131 94 107 105 84 64 58 55 44 35 74 -2 -36 -69 -46 14 -8 32 26 5 24 26 28 43 52 68 59 20 43 45 33 49 16 47 54 41 27 43 3 17 -19 -20
52 69 93 139 119 99 113 115 112 92 71 63 55 45 54 9 28 -34 -34 -36 -9 -18 19 17 26 42 23 21 40 66 86 62 32 45 38 25 65 44 43 52 50 39 8 16 11 13 19
67 48 94 123 135 88 110 117 117 99 81 68 55 44 45 -19 -45 -21 23 -14 -18 9 56 28 60 29 19 32 41 96 79 78 56 47 31 59 80 80 62 62 35 35 19 29 24 29 -4
60 55 62 132 168 78 78 104 121 107 86 76 54 39 43 4 -13 -3 9 -20 22 -23 23 13 29 20 8 20 30 59 68 63 62 75 39 46 63 57 46 32 29 10 -58 -17 -9 -1 0
83 62 20 80 168 77 39 104 122 114 97 83 55 27 22 3 27 85 4 16 7 6 4 47 40 10 7 9 20 35 29 42 59 78 23 14 18 28 45 28 -18 -41 -20 -9 5 20 15
102 98 67 73 132 48 33 103 117 121 109 94 63 59 45 -22 34 82 36 -6 -12 52 23 23 29 2 14 29 49 34 59 50 73 96 24 14 20 50 67 50 45 45 10 91 57 51 0
96 96 114 157 93 -58 60 118 126 125 113 76 120 89 28 12 -2 51 35 -9 70 54 38 25 22 17 5 7 14 27 24 65 70 86 94 37 -4 38 47 57 98 66 80 30 26 -3 12
96 69 5 54 150 -78 61 129 128 134 105 43 139 158 26 43 48 25 -35 32 66 48 37 33 27 37 14 26 26 24 36 77 88 82 85 50 44 35 56 35 36 64 43 51 49 48 31
96 70 42 44 98 -154 76 138 141 134 105 126 194 219 95 121 86 27 34 77 66 39 45 48 65 45 22 42 52 49 54 106 90 82 65 94 80 53 42 61 67 63 33 29 33 25 47
75 50 42 35 33 -77 109 150 163 139 129 284 270 244 174 242 77 34 97 68 74 44 43 52 61 72 65 67 89 89 88 108 86 71 62 76 71 60 37 34 37 22 38 53 66 52 28
50 38 15 -6 44 59 233 152 170 125 97 232 285 223 236 200 175 45 76 69 71 62 69 66 56 62 55 66 67 54 75 83 80 64 82 74 68 39 19 48 39 47 46 49 30 60 62
44 28 16 -52 -12 -5 147 128 164 125 98 277 320 236 219 137 92 81 67 68 62 64 100 69 58 24 34 45 55 51 51 57 60 59 64 72 33 29 29 40 39 49 14 28 38 29 79
38 39 -34 -91 -169 69 113 129 153 112 109 263 263 268 265 112 125 85 96 97 62 84 92 65 42 53 42 36 24 40 50 41 45 56 55 61 27 35 17 47 65 53 -8 19 32 31 47
41 14 0 -143 -95 358 115 128 149 111 167 300 260 164 180 189 136 111 112 85 92 70 120 121 55 68 64 81 93 109 109 105 67 43 69 64 47 42 32 72 71 35 14 57 84 100 92
16 -22 9 25 227 207 140 140 125 87 144 268 181 172 208 170 134 110 76 93 76 82 83 116 79 65 85 96 118 143 143 136 118 107 96 65 88 92 62 53 66 101 88 82 49 30 48
7 139 9 335 211 158 172 132 99 66 88 302 173 225 190 158 103 125 90 98 108 136 157 106 109 92 85 108 88 69 72 64 78 105 107 97 97 91 78 73 82 48 94 90 80 82 97
81 299 289 162 156 169 135 101 108 71 86 273 212 208 182 126 104 57 103 118 147 152 163 147 158 148 114 94 80 44 23 32 30 54 99 119 117 111 114 68 50 116 114 94 70 68 133
156 195 118 150 161 110 93 111 100 64 64 251 213 208 141 116 94 101 84 132 158 192 182 173 143 114 127 105 89 64 52 71 39 46 50 84 104 99 122 109 96 92 92 93 110 176 98
149 115 176 146 102 75 90 102 77 43 61 247 228 222 156 125 86 153 124 149 187 163 181 184 214 148 138 102 88 75 63 59 63 83 59 69 94 102 133 141 104 90 66 95 140 98 100
165 139 105 73 53 78 88 81 62 37 77 227 232 192 188 114 114 110 133 152 178 161 182 126 166 123 108 142 140 114 98 102 91 70 77 92 98 127 95 127 109 38 67 102 113 101 88

GFSGBSN_con_3kmhel_030.txt.gz
Helicity
93 104 102 119 62 72 73 78 77 68 59 52 47 43 42 41 35 33 41 35 37 50 35 27 17 10 17 22 -0 61 40 53 28 -4 20 42 24 15 31 22 5 18 50 8 19 43 64
54 62 76 86 88 63 69 76 80 73 65 59 55 50 49 45 41 33 41 40 36 43 26 22 21 5 20 33 2 60 35 45 25 10 56 24 15 13 25 31 8 -14 41 11 27 19 43
38 40 36 62 92 65 72 80 83 80 70 63 56 47 54 48 45 34 35 35 33 31 28 17 17 9 2 -2 14 29 35 29 22 35 -17 32 37 29 24 43 37 42 44 18 22 44 60
55 49 47 36 57 77 62 83 88 83 75 67 59 47 53 47 48 36 36 31 26 27 22 7 -1 -14 -2 -23 -16 45 34 46 42 23 -37 59 65 42 67 77 51 37 55 38 29 5 45
57 58 52 52 37 64 58 80 81 84 78 69 57 52 52 43 45 32 27 25 26 30 22 1 13 -2 5 -13 -12 53 35 13 45 15 20 12 12 39 88 97 101 32 19 12 36 67 48
60 60 59 60 62 56 60 59 94 87 81 71 60 52 48 46 39 28 22 24 21 16 17 12 -0 -11 8 5 33 3 7 32 17 7 4 9 15 56 86 53 35 20 19 18 -0 3 -17
75 61 69 73 70 72 81 62 67 91 81 75 66 57 47 43 34 32 30 23 51 36 9 3 48 -10 14 4 -19 -18 30 35 7 2 63 19 45 83 10 79 17 31 3 20 59 16 14
125 98 70 64 73 81 94 88 58 87 90 77 68 62 47 44 39 35 25 31 87 73 2 86 -1 -51 41 8 -21 -1 38 21 39 -7 46 44 -31 48 40 28 37 30 48 17 35 28 -20
162 133 102 75 62 81 88 104 75 108 104 78 69 63 49 47 48 50 21 -19 15 50 21 1 32 -20 4 19 -29 5 35 -1 199 -7 77 1 101 34 88 37 77 74 21 32 16 6 -9
153 179 140 110 88 93 98 99 94 80 115 87 77 67 56 77 68 35 31 12 25 -8 69 51 69 -2 -8 -16 -7 34 29 36 26 -28 70 113 18 68 47 26 28 24 127 5 4 40 -0
187 172 170 142 117 112 125 127 122 89 129 107 88 74 72 49 120 76 170 19 16 -1 101 82 77 23 17 -9 16 -6 32 34 15 29 113 55 27 66 66 31 54 -4 59 11 -8 9 48
184 191 189 163 141 132 136 148 145 106 129 127 104 79 81 73 10 105 184 91 6 91 89 67 63 57 -17 5 -11 3 47 45 33 -0 40 -25 -10 111 2 69 29 -5 -12 6 10 20 110
251 252 234 188 174 147 142 159 155 126 129 143 112 91 100 68 102 86 48 84 128 126 -1 52 57 27 -6 14 -14 -1 15 16 26 15 9 -18 45 -7 -20 4 12 -13 -20 11 65 -27 -0
257 298 276 258 211 158 164 163 162 152 134 138 123 106 83 51 142 170 86 120 183 66 -38 20 31 20 10 4 1 10 -2 4 2 32 6 66 5 32 19 -23 58 -14 5 24 12 7 37
168 242 271 298 259 197 178 171 171 173 172 145 162 123 103 33 74 207 141 126 151 27 24 25 16 6 -2 -14 8 22 -23 24 -9 16 20 41 46 166 61 35 39 48 34 28 21 19 -8
127 166 197 250 285 206 173 166 169 194 169 166 211 149 65 48 78 162 176 16 46 -59 43 65 26 -3 4 -9 34 21 14 4 -8 40 166 32 -5 15 8 28 27 35 46 17 19 15 9
1 40 109 150 211 238 182 146 152 188 142 120 193 244 22 59 120 213 150 38 23 -35 3 -9 -13 14 -33 19 21 2 5 17 67 46 97 33 147 18 51 6 15 11 -1 30 31 25 38
15 91 60 76 133 197 201 150 131 180 97 151 297 318 73 182 266 196 38 -0 -32 -57 41 -20 -49 -31 -11 18 26 21 44 43 6 30 36 35 63 95 -4 27 67 90 62 21 61 39 66
42 70 62 70 67 164 178 175 154 151 64 267 425 285 115 156 226 227 139 8 -13 -0 37 -38 -26 63 29 47 44 31 33 140 163 64 76 69 60 16 30 16 15 28 22 38 54 103 44
31 53 50 55 51 100 101 113 101 105 -4 237 426 403 226 184 176 162 99 64 31 -47 -25 35 25 29 41 48 31 36 44 99 114 140 126 134 61 21 3 -3 63 52 3 16 31 96 51
29 47 62 50 70 80 90 83 59 85 -29 253 406 333 282 233 201 146 95 97 49 -9 -37 15 16 14 49 71 38 73 46 113 94 128 115 115 52 43 44 48 46 117 70 15 -8 20 -3
27 35 32 69 64 98 90 83 78 88 -30 238 414 367 177 159 211 192 96 13 16 5 29 -20 39 39 15 29 33 29 22 108 57 61 69 76 79 92 85 71 86 20 49 34 25 16 -10
35 31 22 71 82 112 93 82 68 60 39 226 300 244 158 162 165 177 81 92 2 31 19 27 37 20 -6 62 144 166 150 61 37 59 43 60 65 69 57 100 95 15 3 -5 -2 6 31
22 86 43 37 59 76 74 91 49 96 44 245 265 260 162 153 166 132 103 65 13 -10 51 72 41 28 131 121 148 144 141 140 163 148 58 59 40 98 65 67 22 -1 78 81 87 64 62
25 28 69 68 44 42 76 59 29 48 65 168 89 172 109 136 162 111 77 42 46 12 71 99 148 135 86 129 113 98 103 119 100 95 96 77 91 94 73 43 35 41 64 77 70 98 211
26 43 60 53 52 62 75 70 14 -26 107 42 90 85 128 144 146 80 104 45 44 98 222 327 153 101 147 145 107 70 60 32 49 37 102 97 104 84 68 59 23 67 98 93 74 81 216
42 55 64 66 64 78 66 62 -12 30 114 -196 50 -4 122 141 90 57 104 80 62 202 217 225 255 229 241 130 99 68 49 40 59 39 44 86 112 86 91 62 55 118 127 73 87 186 172
62 72 73 70 91 65 38 31 24 47 -7 -143 -44 27 151 65 102 58 53 100 105 134 229 191 248 219 184 115 97 80 75 56 50 25 33 38 49 56 103 77 38 123 114 121 193 141 144
37 38 26 58 37 28 6 60 72 69 -148 -101 94 139 130 48 227 209 269 254 165 88 203 145 154 125 109 103 105 96 89 114 111 68 38 49 51 61 77 67 107 90 182 126 157 134 114

GFSGBSN_con_3kmhel_033.txt.gz
Helicity
71 68 84 98 110 109 72 69 68 61 56 49 48 47 43 35 28 29 28 29 24 23 32 23 5 -5 6 35 36 20 73 70 48 10 -30 5 30 36 49 84 57 12 28 23 165 57 -12
39 39 46 57 76 101 100 73 74 69 61 51 52 51 47 44 31 27 23 20 21 26 28 22 6 -11 21 38 22 37 36 47 28 5 -7 83 97 11 80 82 11 -8 43 74 18 -13 10
36 37 33 36 38 68 99 78 79 82 73 56 50 43 46 44 34 33 32 22 18 20 26 19 4 0 10 8 1 12 35 20 29 23 41 108 29 7 11 -6 101 38 38 17 10 42 44
48 46 44 41 40 41 67 79 72 82 80 66 58 47 46 45 36 36 30 17 12 13 20 16 3 1 19 15 14 25 41 88 84 100 54 35 47 7 -13 28 76 59 51 57 27 117 60
63 55 52 50 52 44 45 58 63 73 90 81 67 53 45 43 36 36 24 9 3 13 23 11 13 5 -4 11 -13 7 2 89 124 63 8 10 -23 -9 34 77 103 44 85 17 -5 50 28
77 66 61 61 55 53 51 59 56 51 73 83 78 57 44 43 38 38 24 6 16 23 24 8 3 -14 -23 -3 -8 33 54 19 26 19 8 14 -3 20 31 18 81 55 25 25 -46 16 100
104 92 73 66 64 67 68 59 65 56 54 79 82 64 47 42 43 36 34 37 80 86 48 52 36 19 36 -12 12 -16 69 19 9 44 -15 14 50 21 37 38 72 78 20 28 31 -3 146
120 114 104 92 72 75 75 73 76 66 62 68 79 69 48 46 47 36 38 45 73 82 19 73 62 8 26 -1 21 -22 32 31 13 -2 1 6 74 -13 55 123 35 70 51 36 50 2 -18
101 135 140 116 98 82 79 80 86 92 72 76 79 81 54 50 49 57 60 34 26 67 56 22 34 -17 2 1 -11 -13 20 58 97 7 41 -23 57 106 18 106 107 10 -11 76 34 5 -53
109 117 137 143 115 89 76 86 83 93 88 98 96 87 63 83 71 64 115 77 42 21 78 41 94 3 -14 -11 9 10 -23 100 50 30 -12 -47 14 52 14 117 46 -20 41 39 53 1 4
131 146 125 145 155 130 101 96 100 93 99 108 131 116 79 77 99 108 172 242 48 34 121 22 91 8 15 8 -13 4 16 5 51 28 -14 -5 54 3 -24 53 8 10 12 1 -11 15 -2
108 139 153 142 141 151 124 111 114 117 106 122 142 148 113 99 28 71 174 271 84 154 92 74 79 76 10 0 -38 22 36 79 23 92 12 65 20 11 3 25 3 106 8 22 16 15 31
119 109 160 176 145 151 150 124 131 141 135 159 141 165 170 89 60 148 148 96 196 231 63 99 152 121 20 23 -26 -27 93 -2 37 54 24 17 30 7 0 -40 -16 3 21 49 100 53 -14
161 120 157 210 184 157 161 146 135 165 171 173 153 165 133 86 105 156 179 194 210 82 33 40 103 95 30 -33 17 -53 13 21 34 4 38 48 47 73 1 -13 3 23 -11 33 17 0 2
89 123 129 193 305 227 166 157 154 181 197 182 184 215 192 57 92 143 219 218 249 81 2 70 44 95 25 -34 11 23 10 -2 28 18 19 28 41 80 54 131 49 25 84 23 64 48 34
125 75 91 163 227 286 235 150 181 189 220 229 291 264 176 73 152 168 217 221 208 -33 103 23 21 89 49 -5 -41 68 55 7 4 50 127 71 81 34 51 101 24 30 22 65 67 35 26
114 91 63 89 165 200 228 194 191 206 232 238 334 272 136 105 237 214 155 221 60 -98 26 107 24 65 49 -9 26 55 44 38 40 114 179 136 86 20 21 -13 21 27 52 54 70 75 16
170 108 75 47 55 114 191 241 184 220 239 292 426 302 122 218 335 239 144 205 -5 33 16 54 17 28 25 -67 47 59 -14 33 65 94 97 61 87 91 -81 22 42 51 25 38 71 46 73
45 109 88 11 39 46 78 203 193 163 209 414 454 347 178 206 218 156 242 139 12 36 144 170 36 6 44 -49 34 51 59 179 193 172 117 131 117 89 55 71 54 20 47 39 73 118 66
25 87 75 15 -16 56 69 93 133 123 178 375 549 413 272 194 179 137 208 86 19 -47 130 185 75 59 32 37 48 76 103 130 219 185 161 117 112 86 62 47 32 21 36 15 85 123 70
-1 -20 25 38 19 49 64 82 79 76 126 291 571 385 330 233 165 190 144 90 38 22 40 71 35 29 62 37 76 105 157 138 127 119 128 126 109 116 63 19 29 23 67 71 30 52 120
-36 -41 -53 37 63 52 44 54 71 68 74 250 510 403 364 231 197 279 196 60 60 34 124 115 44 -3 122 76 63 99 130 123 92 105 116 142 129 128 93 88 86 119 89 60 87 49 26
-31 -44 -30 6 57 58 78 50 125 82 111 242 343 365 299 204 134 249 217 93 76 57 101 84 77 42 70 93 80 119 97 110 89 85 100 115 128 145 87 102 76 44 32 39 39 32 17
-30 -16 -11 23 56 60 106 83 96 102 104 193 285 362 297 217 157 120 182 115 74 67 140 74 67 47 147 207 310 360 348 261 213 185 65 111 110 112 77 104 90 24 54 54 74 125 146
-15 -13 -23 -28 22 46 83 64 117 97 133 187 137 382 255 179 139 119 107 117 109 29 70 49 102 73 160 258 210 195 217 191 149 146 153 150 137 120 103 93 61 46 96 61 69 140 147
-19 -16 8 -25 30 30 58 53 115 112 147 129 67 147 272 168 83 107 103 130 66 77 78 188 308 290 310 179 227 162 114 80 103 161 254 232 168 131 111 86 40 40 72 102 103 128 143
0 11 25 12 53 98 115 72 129 123 111 146 -79 124 204 69 97 104 139 82 30 81 128 285 242 299 337 277 245 171 114 64 109 95 87 155 195 135 130 87 63 61 88 83 115 91 187
14 -6 61 51 64 89 80 80 100 91 41 103 -73 43 250 182 98 89 113 52 60 126 241 203 379 253 302 295 229 178 99 83 101 79 57 78 103 94 130 95 43 89 127 105 109 208 163
19 28 57 59 54 35 53 78 94 70 66 77 27 -7 130 117 121 185 54 219 126 123 301 301 226 166 200 284 233 169 137 131 117 83 68 79 68 59 65 50 32 110 126 142 186 220 220